Stations météo

réclame
Mon MeteoGroup
Hemavan A, Suède (2101): Température de l'air & dewpoint: 16.10.2018 16:00:00 - 22.10.2018 16:00:00 (CEST)Hemavan A, Suède (2101): Vitesse du vent: 16.10.2018 16:00:00 - 22.10.2018 16:00:00 (CEST)Hemavan A, Suède (2101): Direction du vent: 16.10.2018 16:00:00 - 22.10.2018 16:00:00 (CEST)Hemavan A, Suède (2101): reduced air pressure: 16.10.2018 16:00:00 - 22.10.2018 16:00:00 (CEST)Hemavan A, Suède (2101): visibility: 16.10.2018 16:00:00 - 22.10.2018 16:00:00 (CEST)
Date & Time tt [°C] td [°C] ff [km/h] ff [knt] dd ppp [hPa] vv [km]
22.10.2018 16:00:00 0,4 -0,8 22 12 WNW 997,9 2,7
22.10.2018 15:00:00 0,8 -0,8 18 10 WNW 997,2 2,9
22.10.2018 14:00:00 0,4 -0,5 0 0 N 996,9 2,6
22.10.2018 13:00:00 0,8 -0,7 11 6 NW 996,7 1,9
22.10.2018 12:00:00 0,6 -0,3 4 2 N 996,9 50
22.10.2018 11:00:00 0,3 -0,1 0 0 N 996,8 3,5
22.10.2018 10:00:00 0,6 -0,3 14 8 WNW 996,5 8
22.10.2018 09:00:00 0,8 -0,1 4 2 NNE 996,0 19
22.10.2018 08:00:00 0,3 0,0 7 4 S 995,7 2,0
22.10.2018 07:00:00 0,3 0,0 14 8 SE 996,1 7
22.10.2018 06:00:00 0,1 -0,5 0 0 N 997,0 3,7
22.10.2018 05:00:00 -0,3 -1,1 11 6 SSE 997,7 13
22.10.2018 04:00:00 -1,4 -2,5 0 0 N 998,3 16
22.10.2018 03:00:00 -0,5 -1,6 0 0 N 998,9 27
22.10.2018 02:00:00 0,2 -0,4 7 4 NNW 999,5 6
22.10.2018 01:00:00 1,0 0,0 4 2 W 999,7 45
22.10.2018 00:00:00 0,8 -0,2 22 12 WNW 1000,0 1,7
21.10.2018 23:00:00 1,5 0,3 11 6 ENE 999,5 29
21.10.2018 22:00:00 2,5 0,4 0 0 N 1000,1 30
21.10.2018 21:00:00 2,6 0,7 7 4 SSE 1000,8 19
21.10.2018 20:00:00 2,8 0,4 11 6 S 1001,2 35
21.10.2018 19:00:00 2,9 1,3 14 8 W 1001,3 30
21.10.2018 18:00:00 3,2 2,0 0 0 N 1000,9 28
21.10.2018 17:00:00 2,4 1,5 0 0 N 1001,6 30
21.10.2018 16:00:00 3,5 1,9 4 2 E 1001,8 35
21.10.2018 15:00:00 2,7 1,5 11 6 N 1002,5 15
21.10.2018 14:00:00 5,8 2,3 7 4 W 1001,8 16
21.10.2018 13:00:00 5,2 2,7 14 8 NNW 1002,5 7
21.10.2018 12:00:00 5,9 2,4 7 4 NW 1002,4 16
21.10.2018 11:00:00 5,7 2,2 22 12 W 1003,0 13
21.10.2018 10:00:00 5,1 3,0 7 4 WNW 1002,7 19
21.10.2018 09:00:00 5,5 2,0 18 10 W 1002,8 11
21.10.2018 08:00:00 6,9 3,9 11 6 W 1002,3 18
21.10.2018 07:00:00 4,6 3,6 11 6 SE 1002,7 50
21.10.2018 06:00:00 4,5 3,5 14 8 SE 1003,0 21
21.10.2018 05:00:00 4,8 3,3 18 10 ESE 1003,9 19
21.10.2018 04:00:00 4,0 2,7 18 10 SE 1005,5 7
21.10.2018 03:00:00 3,9 2,4 18 10 SE 1006,5 6
21.10.2018 02:00:00 4,0 2,0 11 6 SE 1007,8 25
21.10.2018 01:00:00 4,4 2,1 22 12 SSE 1009,6 10
21.10.2018 00:00:00 5,0 2,0 14 8 SSE 1010,7 50
20.10.2018 23:00:00 4,5 1,7 0 0 N 1011,9 50
20.10.2018 22:00:00 3,7 1,9 0 0 N 1013,1 50
20.10.2018 21:00:00 4,1 2,0 0 0 N 1013,9 50
20.10.2018 20:00:00 3,5 2,3 0 0 N 1015,3 50
20.10.2018 19:00:00 3,7 2,4 0 0 N 1016,0 22
20.10.2018 18:00:00 3,7 2,1 0 0 N 1016,5 50
20.10.2018 17:00:00 5,1 2,3 0 0 N 1016,9 50
20.10.2018 16:00:00 5,4 2,2 0 0 N 1017,3 50
20.10.2018 15:00:00 5,7 2,7 7 4 WSW 1017,3 50
20.10.2018 14:00:00 5,7 3,4 0 0 N 1017,4 40
20.10.2018 13:00:00 5,4 3,2 4 2 NNE 1017,4 19
20.10.2018 12:00:00 5,2 3,5 4 2 SE 1017,2 9
20.10.2018 11:00:00 4,1 3,4 7 4 S 1017,1 50
20.10.2018 10:00:00 3,6 3,2 4 2 SE 1016,9 30
20.10.2018 09:00:00 2,8 2,5 4 2 SE 1016,7 50
20.10.2018 08:00:00 2,6 2,5 0 0 N 1016,4 50
20.10.2018 07:00:00 2,3 2,2 4 2 S 1016,5 50
20.10.2018 06:00:00 2,0 1,9 4 2 S 1016,6 50
20.10.2018 05:00:00 2,2 1,9 4 2 ESE 1016,5 40
20.10.2018 04:00:00 2,8 2,5 0 0 N 1016,7 9
20.10.2018 03:00:00 3,4 3,0 4 2 E 1016,7 18
20.10.2018 02:00:00 3,3 2,9 4 2 ESE 1016,6 45
20.10.2018 01:00:00 3,4 3,1 7 4 SE 1016,9 50
20.10.2018 00:00:00 2,8 2,5 4 2 S 1017,1 50
19.10.2018 23:00:00 3,1 2,8 4 2 E 1017,2 30
19.10.2018 22:00:00 3,1 2,8 0 0 N 1017,3 15
19.10.2018 21:00:00 3,2 2,9 0 0 N 1017,5 13
19.10.2018 20:00:00 3,0 2,7 0 0 N 1017,3 30
19.10.2018 19:00:00 3,4 3,0 0 0 N 1017,1 22
19.10.2018 18:00:00 3,8 3,1 0 0 N 1017,3 16
19.10.2018 17:00:00 4,4 2,7 0 0 N 1017,3 18
19.10.2018 16:00:00 4,4 2,4 7 4 WNW 1017,1 45
19.10.2018 15:00:00 4,7 2,1 7 4 WNW 1017,3 45
19.10.2018 14:00:00 4,8 1,5 4 2 N 1017,5 40
19.10.2018 13:00:00 4,9 1,2 7 4 NW 1017,6 45
19.10.2018 12:00:00 5,2 1,3 11 6 WNW 1017,3 40
19.10.2018 11:00:00 4,4 0,9 14 8 W 1017,2 50
19.10.2018 10:00:00 4,0 1,4 14 8 WNW 1016,7 45
19.10.2018 09:00:00 4,2 2,1 11 6 WNW 1015,9 20
19.10.2018 08:00:00 4,2 1,9 4 2 W 1014,8 45
19.10.2018 07:00:00 4,6 2,1 25 14 WNW 1013,9 12
19.10.2018 06:00:00 4,5 2,5 22 12 WNW 1013,6 5
19.10.2018 05:00:00 4,7 2,6 29 16 WNW 1013,0 11
19.10.2018 04:00:00 4,6 2,6 32 18 WNW 1012,1 15
19.10.2018 03:00:00 4,8 1,8 18 10 NW 1012,3 50
19.10.2018 02:00:00 4,4 2,1 14 8 NW 1012,2 40
19.10.2018 01:00:00 4,6 1,6 32 18 WNW 1011,5 50
19.10.2018 00:00:00 4,4 1,8 22 12 WNW 1011,8 50
18.10.2018 23:00:00 4,3 2,0 7 4 NW 1011,3 45
18.10.2018 22:00:00 4,3 2,0 7 4 NW 1010,5 40
18.10.2018 21:00:00 4,2 1,7 18 10 WNW 1009,9 30
18.10.2018 20:00:00 3,9 1,9 18 10 NW 1009,5 26
18.10.2018 19:00:00 4,0 2,4 18 10 WNW 1008,8 11
18.10.2018 18:00:00 4,0 2,4 22 12 WNW 1007,9 9
18.10.2018 17:00:00 4,1 2,5 11 6 WNW 1007,9 14
18.10.2018 16:00:00 3,5 1,7 7 4 WNW 1007,7 13
18.10.2018 15:00:00 3,6 1,5 7 4 W 1007,7 23
18.10.2018 14:00:00 3,7 1,6 0 0 N 1007,4 19
18.10.2018 13:00:00 3,8 1,8 4 2 SSW 1007,2 9
18.10.2018 12:00:00 4,1 2,0 0 0 N 1007,4 40
18.10.2018 11:00:00 4,0 0,9 0 0 N 1007,5 50
18.10.2018 10:00:00 3,4 1,1 0 0 N 1008,0 45
18.10.2018 09:00:00 3,8 1,3 7 4 W 1007,9 11
18.10.2018 08:00:00 3,4 1,9 0 0 N 1007,6 12
18.10.2018 07:00:00 3,7 1,6 0 0 N 1007,6 35
18.10.2018 06:00:00 4,0 1,4 0 0 N 1007,8 30
18.10.2018 05:00:00 4,0 1,0 0 0 N 1008,0 12
18.10.2018 04:00:00 5,0 0,4 0 0 N 1008,3 30
18.10.2018 03:00:00 4,4 1,4 0 0 N 1008,3 45
18.10.2018 02:00:00 5,0 1,3 0 0 N 1008,3 25
18.10.2018 01:00:00 4,5 0,8 0 0 N 1008,7 40
18.10.2018 00:00:00 5,0 1,1 11 6 WNW 1009,0 40
17.10.2018 23:00:00 4,5 3,8 4 2 S 1008,7 50
17.10.2018 22:00:00 5,1 4,2 11 6 SSE 1008,5 50
17.10.2018 21:00:00 5,2 4,2 7 4 SE 1008,1 50
17.10.2018 20:00:00 4,9 4,0 4 2 ESE 1008,0 50
17.10.2018 19:00:00 4,8 3,5 7 4 ESE 1008,0 45
17.10.2018 18:00:00 4,9 2,9 7 4 ESE 1007,9 50
17.10.2018 17:00:00 4,9 3,4 11 6 SE 1008,1 50
17.10.2018 16:00:00 5,7 3,4 0 0 N 1008,2 45
17.10.2018 15:00:00 5,5 3,5 11 6 SSE 1008,4 50
17.10.2018 14:00:00 5,3 2,8 11 6 S 1008,5 50
17.10.2018 13:00:00 5,1 3,4 4 2 SE 1008,6 29
17.10.2018 12:00:00 5,1 2,3 14 8 S 1009,2 50
17.10.2018 11:00:00 5,1 2,1 7 4 SSE 1009,2 50
17.10.2018 10:00:00 4,6 2,3 18 10 SSE 1008,9 45
17.10.2018 09:00:00 4,5 1,9 7 4 SSE 1008,8 50
17.10.2018 08:00:00 4,1 1,5 4 2 ESE 1009,1 50
17.10.2018 07:00:00 4,8 1,5 14 8 SSE 1009,7 50
17.10.2018 06:00:00 4,9 1,2 14 8 S 1009,7 50
17.10.2018 05:00:00 5,1 0,8 11 6 S 1009,8 50
17.10.2018 04:00:00 5,8 -0,3 4 2 W 1010,5 50
17.10.2018 03:00:00 6,0 -0,5 0 0 N 1010,8 50
17.10.2018 02:00:00 5,9 0,0 7 4 S 1011,6 50
17.10.2018 01:00:00 5,7 0,9 7 4 SSE 1012,3 50
17.10.2018 00:00:00 5,1 1,0 4 2 SE 1013,1 50
16.10.2018 23:00:00 5,7 1,2 11 6 SSW 1013,9 50
16.10.2018 22:00:00 5,3 1,8 7 4 SSE 1014,4 50
16.10.2018 21:00:00 5,1 1,9 7 4 S 1015,1 50
16.10.2018 20:00:00 4,7 1,0 7 4 ESE 1016,3 45
16.10.2018 19:00:00 4,8 1,1 7 4 ESE 1016,1 50
16.10.2018 18:00:00 4,7 2,2 0 0 N 1016,6 45
16.10.2018 17:00:00 4,9 2,4 0 0 N 1016,7 40
16.10.2018 16:00:00 5,3 2,3 0 0 N 1016,5 50

tt = Température de l'air
td = dewpoint
ff = Vitesse du vent
dd = Direction du vent
ppp = reduced air pressure
vv = visibility

stations d'obs. à proximité